Location: Fredericton
(45.9636°N, 66.6431°W)
Time: 07:02:55
(UTC-03:00)

ISS - Visible Passes

Search period start: 02 July 2020 00:00
Search period end: 12 July 2020 00:00
Orbit: 417 x 420 km, 51.6° (Epoch: 02 July)

Date Brightness Start Highest point End Pass type
(mag) Time Alt. Az. Time Alt. Az. Time Alt. Az.
02 Jul -1.6 03:01:23 15° SE 03:01:23 15° SE 03:03:02 10° E visible
02 Jul -3.8 04:34:18 13° WSW 04:37:18 88° NNW 04:40:40 10° ENE visible
03 Jul -3.7 03:48:04 31° SW 03:49:26 61° SSE 03:52:46 10° ENE visible
04 Jul -3.0 03:01:46 38° SE 03:01:46 38° SE 03:04:46 10° ENE visible
04 Jul -2.9 04:35:07 10° W 04:38:23 46° NNW 04:41:38 10° ENE visible
05 Jul -1.6 02:15:26 17° E 02:15:26 17° E 02:16:38 10° E visible
05 Jul -3.4 03:48:20 21° W 03:50:24 62° NNW 03:53:45 10° ENE visible
06 Jul -3.9 03:01:57 61° WSW 03:02:29 90° NNW 03:05:51 10° ENE visible
06 Jul -2.1 04:36:28 10° WNW 04:39:32 32° N 04:42:37 10° ENE visible
07 Jul -2.9 02:15:31 40° E 02:15:31 40° E 02:17:54 10° ENE visible
07 Jul -2.4 03:48:24 10° W 03:51:30 37° NNW 03:54:41 10° ENE visible
08 Jul -1.4 01:29:00 16° E 01:29:00 16° E 01:29:52 10° ENE visible
08 Jul -2.8 03:01:54 25° W 03:03:28 47° NNW 03:06:44 10° ENE visible
08 Jul -1.8 04:37:43 10° WNW 04:40:44 29° N 04:43:45 10° ENE visible
09 Jul -3.5 02:15:20 63° NW 02:15:28 64° NNW 02:18:48 10° ENE visible
09 Jul -1.8 03:49:37 10° WNW 03:52:38 30° N 03:55:40 10° ENE visible
10 Jul -2.6 01:28:40 38° ENE 01:28:40 38° ENE 01:30:52 10° ENE visible
10 Jul -2.0 03:01:33 11° WNW 03:04:33 32° N 03:07:38 10° ENE visible
10 Jul -2.0 04:38:45 10° WNW 04:41:52 34° N 04:44:59 10° E visible
11 Jul -1.6 00:41:52 18° ENE 00:41:52 18° ENE 00:42:52 10° ENE visible
11 Jul -2.3 02:14:45 22° WNW 02:16:27 38° NNW 02:19:38 10° NE visible
11 Jul -1.8 03:50:44 10° WNW 03:53:46 31° N 03:56:49 10° ENE visible
